PRIVATE WETTERSTATION BILLIGHEIM-ALLFELD                       ZURCK
Wetterdaten: Sonntag, 17.12.2017
Datum Zeit Temp. A. Temp. A. min Temp. A. max Feuchte A. Luftdruck Regen Wind Richtung Richtung Sonnenschein ET Solar Taupunkt Windchill Windben Empfang
17.12.2017 00:00 1,0 C 0,9 C 1,0 C 91 % 1017,8 hPa 0,0 l/m 6,4 km/h (2 Bft) W 270 0 min 0,000 mm 0 W/m -0,3 C 1,0 C 17,7 km/h (3 Bft) 98 %
17.12.2017 00:10 1,1 C 1,0 C 1,1 C 91 % 1017,9 hPa 0,0 l/m 8,0 km/h (2 Bft) W 270 0 min 0,000 mm 0 W/m -0,2 C -0,5 C 17,7 km/h (3 Bft) 97 %
17.12.2017 00:20 1,1 C 1,1 C 1,1 C 91 % 1018,0 hPa 0,2 l/m 4,8 km/h (1 Bft) W 270 0 min 0,000 mm 0 W/m -0,2 C 1,1 C 16,1 km/h (3 Bft) 97 %
17.12.2017 00:30 1,1 C 1,1 C 1,1 C 91 % 1018,0 hPa 0,0 l/m 8,0 km/h (2 Bft) W 270 0 min 0,000 mm 0 W/m -0,2 C -0,5 C 20,9 km/h (4 Bft) 98 %
17.12.2017 00:40 1,1 C 1,0 C 1,1 C 91 % 1018,1 hPa 0,0 l/m 6,4 km/h (2 Bft) W 270 0 min 0,000 mm 0 W/m -0,2 C 1,1 C 14,5 km/h (3 Bft) 88 %
17.12.2017 00:50 0,9 C 0,9 C 1,1 C 91 % 1018,2 hPa 0,0 l/m 6,4 km/h (2 Bft) W 270 0 min 0,000 mm 0 W/m -0,4 C 0,9 C 17,7 km/h (3 Bft) 97 %
17.12.2017 01:00 1,0 C 0,9 C 1,0 C 91 % 1018,1 hPa 0,0 l/m 8,0 km/h (2 Bft) W 270 0 min 0,000 mm 0 W/m -0,3 C -0,6 C 17,7 km/h (3 Bft) 98 %
17.12.2017 01:10 1,0 C 1,0 C 1,0 C 91 % 1018,1 hPa 0,0 l/m 8,0 km/h (2 Bft) W 270 0 min 0,000 mm 0 W/m -0,3 C -0,6 C 20,9 km/h (4 Bft) 97 %
17.12.2017 01:20 1,1 C 1,0 C 1,1 C 91 % 1018,2 hPa 0,0 l/m 9,7 km/h (2 Bft) W 270 0 min 0,000 mm 0 W/m -0,2 C -2,0 C 20,9 km/h (4 Bft) 97 %
17.12.2017 01:30 1,1 C 1,1 C 1,1 C 91 % 1018,2 hPa 0,0 l/m 9,7 km/h (2 Bft) W 270 0 min 0,000 mm 0 W/m -0,2 C -2,0 C 22,5 km/h (4 Bft) 98 %
17.12.2017 01:40 1,1 C 1,1 C 1,1 C 91 % 1018,2 hPa 0,0 l/m 8,0 km/h (2 Bft) W 270 0 min 0,000 mm 0 W/m -0,2 C -0,5 C 22,5 km/h (4 Bft) 98 %
17.12.2017 01:50 1,1 C 1,1 C 1,1 C 91 % 1018,3 hPa 0,0 l/m 6,4 km/h (2 Bft) W 270 0 min 0,000 mm 0 W/m -0,2 C 1,1 C 17,7 km/h (3 Bft) 97 %
17.12.2017 02:00 1,1 C 1,1 C 1,1 C 91 % 1018,4 hPa 0,0 l/m 8,0 km/h (2 Bft) W 270 0 min 0,000 mm 0 W/m -0,2 C -0,5 C 17,7 km/h (3 Bft) 98 %
17.12.2017 02:10 1,0 C 1,0 C 1,1 C 91 % 1018,5 hPa 0,0 l/m 8,0 km/h (2 Bft) W 270 0 min 0,000 mm 0 W/m -0,3 C -0,6 C 20,9 km/h (4 Bft) 89 %
17.12.2017 02:20 1,0 C 1,0 C 1,1 C 91 % 1018,5 hPa 0,0 l/m 4,8 km/h (1 Bft) W-NW 292 0 min 0,000 mm 0 W/m -0,3 C 1,0 C 11,3 km/h (2 Bft) 98 %
17.12.2017 02:30 1,0 C 1,0 C 1,0 C 91 % 1018,6 hPa 0,0 l/m 3,2 km/h (1 Bft) W-NW 292 0 min 0,000 mm 0 W/m -0,3 C 1,0 C 8,0 km/h (2 Bft) 97 %
17.12.2017 02:40 1,0 C 0,9 C 1,0 C 91 % 1018,6 hPa 0,0 l/m 4,8 km/h (1 Bft) W-NW 292 0 min 0,000 mm 0 W/m -0,3 C 1,0 C 14,5 km/h (3 Bft) 97 %
17.12.2017 02:50 1,1 C 1,0 C 1,1 C 91 % 1018,7 hPa 0,0 l/m 8,0 km/h (2 Bft) W 270 0 min 0,000 mm 0 W/m -0,2 C -0,5 C 16,1 km/h (3 Bft) 98 %
17.12.2017 03:00 1,1 C 1,0 C 1,1 C 91 % 1018,8 hPa 0,0 l/m 9,7 km/h (2 Bft) W 270 0 min 0,000 mm 0 W/m -0,2 C -2,0 C 25,7 km/h (4 Bft) 97 %
17.12.2017 03:10 1,1 C 1,1 C 1,1 C 91 % 1018,9 hPa 0,0 l/m 8,0 km/h (2 Bft) W-NW 292 0 min 0,000 mm 0 W/m -0,2 C -0,5 C 20,9 km/h (4 Bft) 97 %
17.12.2017 03:20 1,1 C 1,1 C 1,1 C 91 % 1018,9 hPa 0,0 l/m 6,4 km/h (2 Bft) W-NW 292 0 min 0,000 mm 0 W/m -0,2 C 1,1 C 17,7 km/h (3 Bft) 98 %
17.12.2017 03:30 1,1 C 1,0 C 1,1 C 91 % 1018,8 hPa 0,0 l/m 6,4 km/h (2 Bft) W 270 0 min 0,000 mm 0 W/m -0,2 C 1,1 C 16,1 km/h (3 Bft) 98 %
17.12.2017 03:40 1,1 C 1,0 C 1,1 C 91 % 1018,8 hPa 0,0 l/m 8,0 km/h (2 Bft) W-NW 292 0 min 0,000 mm 0 W/m -0,2 C -0,5 C 16,1 km/h (3 Bft) 98 %
17.12.2017 03:50 1,0 C 0,9 C 1,1 C 91 % 1018,9 hPa 0,0 l/m 6,4 km/h (2 Bft) W 270 0 min 0,000 mm 0 W/m -0,3 C 1,0 C 20,9 km/h (4 Bft) 97 %
17.12.2017 04:00 0,9 C 0,9 C 1,0 C 91 % 1019,1 hPa 0,0 l/m 8,0 km/h (2 Bft) W 270 0 min 0,000 mm 0 W/m -0,4 C -0,7 C 19,3 km/h (3 Bft) 98 %
17.12.2017 04:10 0,9 C 0,9 C 0,9 C 91 % 1019,2 hPa 0,0 l/m 8,0 km/h (2 Bft) W-NW 292 0 min 0,000 mm 0 W/m -0,4 C -0,7 C 16,1 km/h (3 Bft) 97 %
17.12.2017 04:20 1,0 C 0,9 C 1,0 C 91 % 1019,1 hPa 0,0 l/m 6,4 km/h (2 Bft) W 270 0 min 0,000 mm 0 W/m -0,3 C 1,0 C 17,7 km/h (3 Bft) 98 %
17.12.2017 04:30 1,0 C 1,0 C 1,0 C 91 % 1019,3 hPa 0,0 l/m 6,4 km/h (2 Bft) W-NW 292 0 min 0,000 mm 0 W/m -0,3 C 1,0 C 17,7 km/h (3 Bft) 98 %
17.12.2017 04:40 1,1 C 1,0 C 1,1 C 91 % 1019,4 hPa 0,0 l/m 8,0 km/h (2 Bft) W-NW 292 0 min 0,000 mm 0 W/m -0,2 C -0,5 C 17,7 km/h (3 Bft) 97 %
17.12.2017 04:50 1,1 C 1,0 C 1,1 C 91 % 1019,4 hPa 0,0 l/m 8,0 km/h (2 Bft) W-NW 292 0 min 0,000 mm 0 W/m -0,2 C -0,5 C 24,1 km/h (4 Bft) 98 %
17.12.2017 05:00 1,0 C 1,0 C 1,1 C 91 % 1019,4 hPa 0,0 l/m 9,7 km/h (2 Bft) W 270 0 min 0,000 mm 0 W/m -0,3 C -2,1 C 25,7 km/h (4 Bft) 97 %
17.12.2017 05:10 1,0 C 1,0 C 1,0 C 91 % 1019,5 hPa 0,0 l/m 6,4 km/h (2 Bft) W 270 0 min 0,000 mm 0 W/m -0,3 C 1,0 C 17,7 km/h (3 Bft) 91 %
17.12.2017 05:20 1,0 C 0,9 C 1,0 C 91 % 1019,6 hPa 0,0 l/m 6,4 km/h (2 Bft) W 270 0 min 0,000 mm 0 W/m -0,3 C 1,0 C 19,3 km/h (3 Bft) 94 %
17.12.2017 05:30 1,0 C 0,9 C 1,0 C 91 % 1019,6 hPa 0,0 l/m 6,4 km/h (2 Bft) W 270 0 min 0,000 mm 0 W/m -0,3 C 1,0 C 20,9 km/h (4 Bft) 98 %
17.12.2017 05:40 1,0 C 1,0 C 1,0 C 91 % 1019,6 hPa 0,0 l/m 8,0 km/h (2 Bft) W 270 0 min 0,000 mm 0 W/m -0,3 C -0,6 C 19,3 km/h (3 Bft) 97 %
17.12.2017 05:50 1,0 C 0,9 C 1,0 C 91 % 1019,8 hPa 0,0 l/m 8,0 km/h (2 Bft) W 270 0 min 0,000 mm 0 W/m -0,3 C -0,6 C 17,7 km/h (3 Bft) 98 %
17.12.2017 06:00 0,9 C 0,9 C 1,0 C 91 % 1019,9 hPa 0,0 l/m 8,0 km/h (2 Bft) W 270 0 min 0,000 mm 0 W/m -0,4 C -0,7 C 25,7 km/h (4 Bft) 97 %
17.12.2017 06:10 0,9 C 0,9 C 0,9 C 91 % 1019,9 hPa 0,0 l/m 6,4 km/h (2 Bft) W 270 0 min 0,000 mm 0 W/m -0,4 C 0,9 C 19,3 km/h (3 Bft) 97 %
17.12.2017 06:20 0,9 C 0,9 C 0,9 C 91 % 1019,9 hPa 0,0 l/m 6,4 km/h (2 Bft) W 270 0 min 0,000 mm 0 W/m -0,4 C 0,9 C 17,7 km/h (3 Bft) 98 %
17.12.2017 06:30 0,8 C 0,8 C 0,9 C 91 % 1020,0 hPa 0,0 l/m 8,0 km/h (2 Bft) W 270 0 min 0,000 mm 0 W/m -0,5 C -0,8 C 22,5 km/h (4 Bft) 97 %
17.12.2017 06:40 0,8 C 0,8 C 0,8 C 91 % 1020,1 hPa 0,0 l/m 8,0 km/h (2 Bft) W 270 0 min 0,000 mm 0 W/m -0,5 C -0,8 C 22,5 km/h (4 Bft) 98 %
17.12.2017 06:50 0,8 C 0,8 C 0,8 C 91 % 1020,4 hPa 0,0 l/m 11,3 km/h (2 Bft) W 270 0 min 0,000 mm 0 W/m -0,5 C -3,6 C 27,4 km/h (4 Bft) 97 %
17.12.2017 07:00 0,7 C 0,7 C 0,8 C 91 % 1020,5 hPa 0,0 l/m 8,0 km/h (2 Bft) W 270 0 min 0,000 mm 0 W/m -0,6 C -0,9 C 24,1 km/h (4 Bft) 98 %
17.12.2017 07:10 0,7 C 0,7 C 0,7 C 91 % 1020,7 hPa 0,0 l/m 8,0 km/h (2 Bft) W-SW 247 0 min 0,000 mm 0 W/m -0,6 C -0,9 C 24,1 km/h (4 Bft) 97 %
17.12.2017 07:20 0,7 C 0,7 C 0,7 C 91 % 1020,7 hPa 0,0 l/m 6,4 km/h (2 Bft) W 270 0 min 0,000 mm 0 W/m -0,6 C 0,7 C 29,0 km/h (5 Bft) 97 %
17.12.2017 07:30 0,6 C 0,6 C 0,7 C 91 % 1020,8 hPa 0,2 l/m 6,4 km/h (2 Bft) W 270 0 min 0,000 mm 0 W/m -0,7 C 0,6 C 27,4 km/h (4 Bft) 98 %
17.12.2017 07:40 0,5 C 0,5 C 0,6 C 91 % 1021,0 hPa 0,0 l/m 11,3 km/h (2 Bft) W 270 0 min 0,000 mm 0 W/m -0,8 C -3,9 C 24,1 km/h (4 Bft) 97 %
17.12.2017 07:50 0,4 C 0,4 C 0,5 C 91 % 1021,1 hPa 0,0 l/m 8,0 km/h (2 Bft) W 270 0 min 0,000 mm 0 W/m -0,9 C -1,2 C 25,7 km/h (4 Bft) 98 %
17.12.2017 08:00 0,3 C 0,3 C 0,4 C 91 % 1021,2 hPa 0,0 l/m 9,7 km/h (2 Bft) W 270 0 min 0,000 mm 0 W/m -1,0 C -2,9 C 27,4 km/h (4 Bft) 97 %
17.12.2017 08:10 0,2 C 0,2 C 0,3 C 91 % 1021,2 hPa 0,0 l/m 9,7 km/h (2 Bft) W 270 0 min 0,000 mm 0 W/m -1,1 C -3,0 C 25,7 km/h (4 Bft) 98 %
17.12.2017 08:20 0,2 C 0,2 C 0,2 C 91 % 1021,3 hPa 0,0 l/m 4,8 km/h (1 Bft) W 270 0 min 0,000 mm 0 W/m -1,1 C 0,2 C 17,7 km/h (3 Bft) 98 %
17.12.2017 08:30 0,2 C 0,2 C 0,2 C 91 % 1021,5 hPa 0,0 l/m 6,4 km/h (2 Bft) W-SW 247 0 min 0,000 mm 5 W/m -1,1 C 0,2 C 17,7 km/h (3 Bft) 97 %
17.12.2017 08:40 0,2 C 0,2 C 0,3 C 91 % 1021,7 hPa 0,0 l/m 3,2 km/h (1 Bft) W 270 0 min 0,000 mm 7 W/m -1,1 C 0,2 C 20,9 km/h (4 Bft) 98 %
17.12.2017 08:50 0,3 C 0,2 C 0,3 C 91 % 1022,0 hPa 0,0 l/m 1,6 km/h (1 Bft) W 270 0 min 0,000 mm 11 W/m -1,0 C 0,3 C 16,1 km/h (3 Bft) 97 %
17.12.2017 09:00 0,3 C 0,3 C 0,3 C 91 % 1022,1 hPa 0,0 l/m 4,8 km/h (1 Bft) W 270 0 min 0,000 mm 16 W/m -1,0 C 0,3 C 20,9 km/h (4 Bft) 98 %
17.12.2017 09:10 0,3 C 0,3 C 0,3 C 91 % 1022,4 hPa 0,0 l/m 4,8 km/h (1 Bft) W 270 0 min 0,000 mm 23 W/m -1,0 C 0,3 C 16,1 km/h (3 Bft) 97 %
17.12.2017 09:20 0,4 C 0,3 C 0,4 C 91 % 1022,4 hPa 0,0 l/m 4,8 km/h (1 Bft) W-SW 247 0 min 0,000 mm 21 W/m -0,9 C 0,4 C 19,3 km/h (3 Bft) 97 %
17.12.2017 09:30 0,4 C 0,4 C 0,4 C 91 % 1022,6 hPa 0,0 l/m 3,2 km/h (1 Bft) W 270 0 min 0,000 mm 26 W/m -0,9 C 0,4 C 11,3 km/h (2 Bft) 97 %
17.12.2017 09:40 0,4 C 0,4 C 0,4 C 91 % 1022,6 hPa 0,0 l/m 4,8 km/h (1 Bft) W 270 0 min 0,000 mm 51 W/m -0,9 C 0,4 C 11,3 km/h (2 Bft) 87 %
17.12.2017 09:50 0,4 C 0,4 C 0,4 C 91 % 1022,8 hPa 0,0 l/m 3,2 km/h (1 Bft) W-NW 292 0 min 0,000 mm 60 W/m -0,9 C 0,4 C 19,3 km/h (3 Bft) 98 %
17.12.2017 10:00 0,5 C 0,4 C 0,5 C 91 % 1022,8 hPa 0,0 l/m 6,4 km/h (2 Bft) W 270 0 min 0,025 mm 86 W/m -0,8 C 0,5 C 17,7 km/h (3 Bft) 97 %
17.12.2017 10:10 0,6 C 0,5 C 0,6 C 91 % 1022,8 hPa 0,0 l/m 4,8 km/h (1 Bft) W 270 0 min 0,000 mm 128 W/m -0,7 C 0,6 C 14,5 km/h (3 Bft) 98 %
17.12.2017 10:20 0,7 C 0,6 C 0,7 C 91 % 1022,9 hPa 0,0 l/m 6,4 km/h (2 Bft) W 270 0 min 0,000 mm 130 W/m -0,6 C 0,7 C 24,1 km/h (4 Bft) 97 %
17.12.2017 10:30 0,7 C 0,7 C 0,8 C 91 % 1023,1 hPa 0,0 l/m 8,0 km/h (2 Bft) W 270 0 min 0,000 mm 100 W/m -0,6 C -0,9 C 22,5 km/h (4 Bft) 98 %
17.12.2017 10:40 0,7 C 0,7 C 0,7 C 91 % 1023,3 hPa 0,0 l/m 6,4 km/h (2 Bft) W 270 0 min 0,000 mm 53 W/m -0,6 C 0,7 C 17,7 km/h (3 Bft) 99 %
17.12.2017 10:50 0,7 C 0,6 C 0,7 C 91 % 1023,3 hPa 0,0 l/m 3,2 km/h (1 Bft) W 270 0 min 0,000 mm 39 W/m -0,6 C 0,7 C 16,1 km/h (3 Bft) 99 %
17.12.2017 11:00 0,6 C 0,6 C 0,6 C 91 % 1023,4 hPa 0,0 l/m 4,8 km/h (1 Bft) W 270 0 min 0,025 mm 56 W/m -0,7 C 0,6 C 14,5 km/h (3 Bft) 100 %
17.12.2017 11:10 0,6 C 0,6 C 0,6 C 91 % 1023,5 hPa 0,0 l/m 6,4 km/h (2 Bft) W-NW 292 0 min 0,000 mm 56 W/m -0,7 C 0,6 C 19,3 km/h (3 Bft) 99 %
17.12.2017 11:20 0,6 C 0,6 C 0,6 C 91 % 1023,4 hPa 0,0 l/m 8,0 km/h (2 Bft) W 270 0 min 0,000 mm 51 W/m -0,7 C -1,0 C 27,4 km/h (4 Bft) 90 %
17.12.2017 11:30 0,6 C 0,6 C 0,6 C 91 % 1023,4 hPa 0,0 l/m 6,4 km/h (2 Bft) W-NW 292 0 min 0,000 mm 58 W/m -0,7 C 0,6 C 16,1 km/h (3 Bft) 99 %
17.12.2017 11:40 0,6 C 0,6 C 0,7 C 91 % 1023,4 hPa 0,0 l/m 3,2 km/h (1 Bft) W-NW 292 0 min 0,000 mm 70 W/m -0,7 C 0,6 C 12,9 km/h (3 Bft) 100 %
17.12.2017 11:50 0,7 C 0,7 C 0,7 C 91 % 1023,4 hPa 0,0 l/m 1,6 km/h (1 Bft) W 270 0 min 0,000 mm 76 W/m -0,6 C 0,7 C 11,3 km/h (2 Bft) 99 %
17.12.2017 12:00 0,8 C 0,7 C 0,8 C 91 % 1023,4 hPa 0,0 l/m 4,8 km/h (1 Bft) W 270 0 min 0,025 mm 70 W/m -0,5 C 0,8 C 16,1 km/h (3 Bft) 100 %
17.12.2017 12:10 0,8 C 0,8 C 0,8 C 91 % 1023,5 hPa 0,0 l/m 4,8 km/h (1 Bft) W 270 0 min 0,000 mm 58 W/m -0,5 C 0,8 C 12,9 km/h (3 Bft) 100 %
17.12.2017 12:20 0,8 C 0,8 C 0,8 C 91 % 1023,5 hPa 0,0 l/m 3,2 km/h (1 Bft) W 270 0 min 0,000 mm 65 W/m -0,5 C 0,8 C 14,5 km/h (3 Bft) 100 %
17.12.2017 12:30 0,8 C 0,8 C 0,9 C 91 % 1023,5 hPa 0,0 l/m 3,2 km/h (1 Bft) W-NW 292 0 min 0,000 mm 67 W/m -0,5 C 0,8 C 14,5 km/h (3 Bft) 100 %
17.12.2017 12:40 0,9 C 0,8 C 0,9 C 91 % 1023,6 hPa 0,0 l/m 4,8 km/h (1 Bft) W-NW 292 0 min 0,000 mm 76 W/m -0,4 C 0,9 C 9,7 km/h (2 Bft) 100 %
17.12.2017 12:50 1,0 C 0,9 C 1,0 C 91 % 1023,6 hPa 0,0 l/m 4,8 km/h (1 Bft) W-NW 292 0 min 0,000 mm 95 W/m -0,3 C 1,0 C 19,3 km/h (3 Bft) 100 %
17.12.2017 13:00 1,1 C 1,0 C 1,1 C 90 % 1023,5 hPa 0,0 l/m 4,8 km/h (1 Bft) W-NW 292 0 min 0,025 mm 111 W/m -0,4 C 1,1 C 16,1 km/h (3 Bft) 100 %
17.12.2017 13:10 1,1 C 1,1 C 1,1 C 90 % 1023,6 hPa 0,0 l/m 6,4 km/h (2 Bft) W-NW 292 0 min 0,000 mm 105 W/m -0,4 C 1,1 C 22,5 km/h (4 Bft) 100 %
17.12.2017 13:20 1,1 C 1,1 C 1,1 C 90 % 1023,5 hPa 0,0 l/m 4,8 km/h (1 Bft) W-NW 292 0 min 0,000 mm 81 W/m -0,4 C 1,1 C 14,5 km/h (3 Bft) 100 %
17.12.2017 13:30 1,2 C 1,1 C 1,2 C 90 % 1023,5 hPa 0,0 l/m 6,4 km/h (2 Bft) W-NW 292 0 min 0,000 mm 81 W/m -0,3 C 1,2 C 19,3 km/h (3 Bft) 100 %
17.12.2017 13:40 1,1 C 1,1 C 1,2 C 90 % 1023,5 hPa 0,0 l/m 8,0 km/h (2 Bft) W-NW 292 0 min 0,000 mm 72 W/m -0,4 C -0,5 C 16,1 km/h (3 Bft) 100 %
17.12.2017 13:50 1,1 C 1,1 C 1,1 C 90 % 1023,5 hPa 0,0 l/m 8,0 km/h (2 Bft) W 270 0 min 0,000 mm 44 W/m -0,4 C -0,5 C 16,1 km/h (3 Bft) 100 %
17.12.2017 14:00 1,1 C 1,0 C 1,1 C 90 % 1023,6 hPa 0,0 l/m 4,8 km/h (1 Bft) W-NW 292 0 min 0,025 mm 39 W/m -0,4 C 1,1 C 14,5 km/h (3 Bft) 100 %
17.12.2017 14:10 1,0 C 1,0 C 1,1 C 90 % 1023,6 hPa 0,0 l/m 6,4 km/h (2 Bft) W-NW 292 0 min 0,000 mm 35 W/m -0,5 C 1,0 C 19,3 km/h (3 Bft) 100 %
17.12.2017 14:30 1,0 C 1,0 C 1,1 C 90 % 1023,9 hPa 0,0 l/m 5,6 km/h (1 Bft) W 274 0 min 0,002 mm 30 W/m -0,5 C 1,0 C 12,9 km/h (3 Bft) 96 %
17.12.2017 14:40 1,0 C 1,0 C 1,0 C 91 % 1024,0 hPa 0,0 l/m 4,8 km/h (1 Bft) W 277 0 min 0,000 mm 28 W/m -0,3 C 1,0 C 14,5 km/h (3 Bft) 97 %
17.12.2017 14:50 1,1 C 1,0 C 1,1 C 90 % 1024,0 hPa 0,0 l/m 3,9 km/h (1 Bft) W 267 0 min 0,000 mm 35 W/m -0,4 C 1,1 C 16,1 km/h (3 Bft) 99 %
17.12.2017 15:00 1,1 C 1,1 C 1,2 C 91 % 1024,0 hPa 0,0 l/m 2,3 km/h (1 Bft) W-NW 298 0 min 0,025 mm 25 W/m -0,2 C 1,1 C 11,3 km/h (2 Bft) 100 %
17.12.2017 15:10 1,2 C 1,1 C 1,2 C 91 % 1024,1 hPa 0,0 l/m 4,2 km/h (1 Bft) W-SW 254 0 min 0,000 mm 42 W/m -0,1 C 1,2 C 11,3 km/h (2 Bft) 100 %
17.12.2017 15:20 1,3 C 1,2 C 1,3 C 91 % 1024,1 hPa 0,0 l/m 1,3 km/h (1 Bft) W-SW 258 0 min 0,000 mm 26 W/m -0,0 C 1,3 C 8,0 km/h (2 Bft) 100 %
17.12.2017 15:30 1,3 C 1,3 C 1,3 C 91 % 1024,1 hPa 0,0 l/m 0,3 km/h (0 Bft) W-SW 257 0 min 0,000 mm 28 W/m -0,0 C 1,3 C 6,4 km/h (2 Bft) 100 %
17.12.2017 15:40 1,3 C 1,3 C 1,3 C 91 % 1024,2 hPa 0,0 l/m 0,4 km/h (0 Bft) W-SW 257 0 min 0,000 mm 28 W/m -0,0 C 1,3 C 6,4 km/h (2 Bft) 100 %
17.12.2017 15:50 1,2 C 1,2 C 1,3 C 91 % 1024,3 hPa 0,0 l/m 0,6 km/h (0 Bft) W-SW 254 0 min 0,000 mm 19 W/m -0,1 C 1,2 C 8,0 km/h (2 Bft) 90 %
17.12.2017 16:00 1,1 C 1,1 C 1,2 C 91 % 1024,5 hPa 0,0 l/m 4,5 km/h (1 Bft) W 260 0 min 0,000 mm 12 W/m -0,2 C 1,1 C 9,7 km/h (2 Bft) 100 %
17.12.2017 16:10 1,1 C 1,1 C 1,1 C 91 % 1024,6 hPa 0,0 l/m 3,8 km/h (1 Bft) SW 233 0 min 0,000 mm 5 W/m -0,2 C 1,1 C 8,0 km/h (2 Bft) 100 %
17.12.2017 16:20 1,1 C 1,0 C 1,1 C 91 % 1024,7 hPa 0,0 l/m 3,1 km/h (1 Bft) W-SW 244 0 min 0,000 mm 0 W/m -0,2 C 1,1 C 11,3 km/h (2 Bft) 100 %
17.12.2017 16:30 1,1 C 1,1 C 1,1 C 91 % 1024,8 hPa 0,0 l/m 3,0 km/h (1 Bft) W-SW 249 0 min 0,000 mm 0 W/m -0,2 C 1,1 C 9,7 km/h (2 Bft) 100 %
17.12.2017 16:40 1,1 C 1,1 C 1,2 C 90 % 1024,8 hPa 0,0 l/m 4,2 km/h (1 Bft) W-SW 256 0 min 0,000 mm 0 W/m -0,4 C 1,1 C 11,3 km/h (2 Bft) 100 %
17.12.2017 16:50 1,2 C 1,1 C 1,2 C 90 % 1025,0 hPa 0,0 l/m 4,1 km/h (1 Bft) SW 236 0 min 0,000 mm 0 W/m -0,3 C 1,2 C 14,5 km/h (3 Bft) 100 %
17.12.2017 17:00 1,1 C 1,1 C 1,2 C 90 % 1025,1 hPa 0,0 l/m 4,6 km/h (1 Bft) W 262 0 min 0,000 mm 0 W/m -0,4 C 1,1 C 14,5 km/h (3 Bft) 100 %
17.12.2017 17:10 1,1 C 1,1 C 1,1 C 90 % 1025,3 hPa 0,0 l/m 6,9 km/h (2 Bft) W-SW 248 0 min 0,000 mm 0 W/m -0,4 C 0,6 C 16,1 km/h (3 Bft) 100 %
17.12.2017 17:20 1,0 C 1,0 C 1,1 C 90 % 1025,5 hPa 0,0 l/m 4,9 km/h (1 Bft) SW 234 0 min 0,000 mm 0 W/m -0,5 C 1,0 C 16,1 km/h (3 Bft) 100 %
17.12.2017 17:30 0,9 C 0,9 C 1,0 C 90 % 1025,6 hPa 0,0 l/m 3,1 km/h (1 Bft) W-SW 256 0 min 0,000 mm 0 W/m -0,6 C 0,9 C 16,1 km/h (3 Bft) 100 %
17.12.2017 17:40 0,9 C 0,9 C 1,0 C 90 % 1025,6 hPa 0,0 l/m 3,6 km/h (1 Bft) W-SW 248 0 min 0,000 mm 0 W/m -0,6 C 0,9 C 12,9 km/h (3 Bft) 100 %
17.12.2017 17:50 0,9 C 0,9 C 0,9 C 91 % 1025,6 hPa 0,0 l/m 3,8 km/h (1 Bft) S-SW 210 0 min 0,000 mm 0 W/m -0,4 C 0,9 C 14,5 km/h (3 Bft) 100 %
17.12.2017 18:00 0,9 C 0,9 C 0,9 C 91 % 1025,6 hPa 0,0 l/m 8,5 km/h (2 Bft) S-SW 213 0 min 0,000 mm 0 W/m -0,4 C -1,2 C 17,7 km/h (3 Bft) 91 %
17.12.2017 18:10 0,9 C 0,9 C 1,0 C 91 % 1026,0 hPa 0,0 l/m 3,4 km/h (1 Bft) W-SW 245 0 min 0,000 mm 0 W/m -0,4 C 0,9 C 11,3 km/h (2 Bft) 100 %
17.12.2017 18:20 1,0 C 0,9 C 1,0 C 91 % 1026,0 hPa 0,0 l/m 0,4 km/h (0 Bft) W-SW 245 0 min 0,000 mm 0 W/m -0,3 C 1,0 C 6,4 km/h (2 Bft) 100 %
17.12.2017 18:30 1,0 C 1,0 C 1,1 C 90 % 1026,0 hPa 0,0 l/m 2,3 km/h (1 Bft) W-SW 256 0 min 0,000 mm 0 W/m -0,5 C 1,0 C 9,7 km/h (2 Bft) 100 %
17.12.2017 18:40 1,0 C 1,0 C 1,1 C 90 % 1025,9 hPa 0,0 l/m 2,0 km/h (1 Bft) W-SW 254 0 min 0,000 mm 0 W/m -0,5 C 1,0 C 9,7 km/h (2 Bft) 99 %
17.12.2017 18:50 0,9 C 0,9 C 1,0 C 91 % 1026,0 hPa 0,1 l/m 2,4 km/h (1 Bft) W-SW 240 0 min 0,000 mm 0 W/m -0,4 C 0,9 C 9,7 km/h (2 Bft) 91 %
17.12.2017 19:00 0,9 C 0,9 C 0,9 C 91 % 1026,0 hPa 0,0 l/m 2,6 km/h (1 Bft) SW 236 0 min 0,000 mm 0 W/m -0,4 C 0,9 C 9,7 km/h (2 Bft) 100 %
17.12.2017 19:10 0,9 C 0,9 C 1,0 C 90 % 1026,0 hPa 0,0 l/m 3,1 km/h (1 Bft) W-SW 257 0 min 0,000 mm 0 W/m -0,6 C 0,9 C 11,3 km/h (2 Bft) 100 %
17.12.2017 19:20 1,0 C 0,9 C 1,0 C 91 % 1026,1 hPa 0,0 l/m 1,7 km/h (1 Bft) SW 217 0 min 0,000 mm 0 W/m -0,3 C 1,0 C 9,7 km/h (2 Bft) 100 %
17.12.2017 19:30 1,0 C 1,0 C 1,0 C 90 % 1026,0 hPa 0,0 l/m 3,7 km/h (1 Bft) S-SW 211 0 min 0,000 mm 0 W/m -0,5 C 1,0 C 9,7 km/h (2 Bft) 91 %
17.12.2017 19:40 1,0 C 1,0 C 1,0 C 90 % 1026,0 hPa 0,0 l/m 4,3 km/h (1 Bft) SW 227 0 min 0,000 mm 0 W/m -0,5 C 1,0 C 14,5 km/h (3 Bft) 100 %
17.12.2017 19:50 0,9 C 0,9 C 1,0 C 90 % 1025,9 hPa 0,0 l/m 6,8 km/h (2 Bft) SW 219 0 min 0,000 mm 0 W/m -0,6 C 0,5 C 17,7 km/h (3 Bft) 100 %
17.12.2017 20:00 0,9 C 0,9 C 0,9 C 90 % 1026,0 hPa 0,0 l/m 6,4 km/h (2 Bft) SW 218 0 min 0,000 mm 0 W/m -0,6 C 0,9 C 16,1 km/h (3 Bft) 100 %
17.12.2017 20:10 0,8 C 0,8 C 0,9 C 91 % 1026,1 hPa 0,0 l/m 5,9 km/h (2 Bft) SW 224 0 min 0,000 mm 0 W/m -0,5 C 0,8 C 14,5 km/h (3 Bft) 99 %
17.12.2017 20:20 0,8 C 0,8 C 0,8 C 91 % 1026,2 hPa 0,0 l/m 7,2 km/h (2 Bft) W-SW 241 0 min 0,000 mm 0 W/m -0,5 C -0,0 C 19,3 km/h (3 Bft) 99 %
17.12.2017 20:30 0,7 C 0,7 C 0,8 C 91 % 1026,2 hPa 0,0 l/m 6,6 km/h (2 Bft) W 266 0 min 0,000 mm 0 W/m -0,6 C 0,5 C 20,9 km/h (4 Bft) 98 %
17.12.2017 20:40 0,7 C 0,7 C 0,7 C 91 % 1026,1 hPa 0,0 l/m 6,4 km/h (2 Bft) W 260 0 min 0,000 mm 0 W/m -0,6 C 0,7 C 17,7 km/h (3 Bft) 100 %
17.12.2017 20:50 0,7 C 0,7 C 0,7 C 91 % 1026,2 hPa 0,0 l/m 7,2 km/h (2 Bft) W-SW 237 0 min 0,000 mm 0 W/m -0,6 C -0,1 C 19,3 km/h (3 Bft) 100 %
17.12.2017 21:00 0,8 C 0,7 C 0,8 C 91 % 1026,2 hPa 0,0 l/m 7,5 km/h (2 Bft) W 264 0 min 0,000 mm 0 W/m -0,5 C -0,3 C 16,1 km/h (3 Bft) 100 %
17.12.2017 21:10 0,8 C 0,8 C 0,8 C 91 % 1026,4 hPa 0,0 l/m 4,8 km/h (1 Bft) W-SW 247 0 min 0,000 mm 0 W/m -0,5 C 0,8 C 11,3 km/h (2 Bft) 100 %
17.12.2017 21:20 0,9 C 0,8 C 0,9 C 90 % 1026,3 hPa 0,0 l/m 3,2 km/h (1 Bft) W-SW 247 0 min 0,000 mm 0 W/m -0,6 C 0,9 C 11,3 km/h (2 Bft) 100 %
17.12.2017 21:30 0,8 C 0,8 C 0,9 C 90 % 1026,3 hPa 0,0 l/m 1,6 km/h (1 Bft) W-SW 247 0 min 0,000 mm 0 W/m -0,6 C 0,8 C 8,0 km/h (2 Bft) 100 %
17.12.2017 21:40 0,8 C 0,8 C 0,9 C 90 % 1026,2 hPa 0,0 l/m 3,2 km/h (1 Bft) SW 225 0 min 0,000 mm 0 W/m -0,6 C 0,8 C 9,7 km/h (2 Bft) 100 %
17.12.2017 21:50 0,8 C 0,8 C 0,8 C 90 % 1026,1 hPa 0,0 l/m 1,6 km/h (1 Bft) SW 225 0 min 0,000 mm 0 W/m -0,6 C 0,8 C 11,3 km/h (2 Bft) 100 %
17.12.2017 22:00 0,8 C 0,8 C 0,8 C 90 % 1026,0 hPa 0,0 l/m 4,8 km/h (1 Bft) SW 225 0 min 0,000 mm 0 W/m -0,6 C 0,8 C 11,3 km/h (2 Bft) 91 %
17.12.2017 22:10 0,8 C 0,8 C 0,8 C 90 % 1026,0 hPa 0,0 l/m 6,4 km/h (2 Bft) SW 225 0 min 0,000 mm 0 W/m -0,6 C 0,8 C 14,5 km/h (3 Bft) 100 %
17.12.2017 22:20 0,8 C 0,8 C 0,8 C 90 % 1026,0 hPa 0,0 l/m 6,4 km/h (2 Bft) SW 225 0 min 0,000 mm 0 W/m -0,6 C 0,8 C 16,1 km/h (3 Bft) 100 %
17.12.2017 22:30 0,8 C 0,8 C 0,8 C 90 % 1026,1 hPa 0,0 l/m 4,8 km/h (1 Bft) SW 225 0 min 0,000 mm 0 W/m -0,6 C 0,8 C 17,7 km/h (3 Bft) 100 %
17.12.2017 22:40 0,8 C 0,8 C 0,8 C 90 % 1026,0 hPa 0,0 l/m 8,0 km/h (2 Bft) SW 225 0 min 0,000 mm 0 W/m -0,6 C -0,8 C 20,9 km/h (4 Bft) 100 %
17.12.2017 22:50 0,7 C 0,7 C 0,8 C 90 % 1025,9 hPa 0,0 l/m 8,0 km/h (2 Bft) SW 225 0 min 0,000 mm 0 W/m -0,7 C -0,9 C 17,7 km/h (3 Bft) 100 %
17.12.2017 23:00 0,7 C 0,7 C 0,7 C 90 % 1026,0 hPa 0,0 l/m 6,4 km/h (2 Bft) SW 225 0 min 0,000 mm 0 W/m -0,7 C 0,7 C 16,1 km/h (3 Bft) 100 %
17.12.2017 23:10 0,6 C 0,6 C 0,7 C 90 % 1025,9 hPa 0,0 l/m 6,4 km/h (2 Bft) SW 225 0 min 0,000 mm 0 W/m -0,8 C 0,6 C 14,5 km/h (3 Bft) 100 %
17.12.2017 23:20 0,6 C 0,5 C 0,6 C 91 % 1025,9 hPa 0,0 l/m 4,8 km/h (1 Bft) SW 225 0 min 0,000 mm 0 W/m -0,7 C 0,6 C 16,1 km/h (3 Bft) 100 %
17.12.2017 23:30 0,5 C 0,5 C 0,6 C 91 % 1025,8 hPa 0,0 l/m 6,4 km/h (2 Bft) SW 225 0 min 0,000 mm 0 W/m -0,8 C 0,5 C 14,5 km/h (3 Bft) 100 %
17.12.2017 23:40 0,4 C 0,4 C 0,5 C 91 % 1025,7 hPa 0,0 l/m 6,4 km/h (2 Bft) SW 225 0 min 0,000 mm 0 W/m -0,9 C 0,4 C 11,3 km/h (2 Bft) 100 %
17.12.2017 23:50 0,5 C 0,4 C 0,5 C 91 % 1025,7 hPa 0,0 l/m 6,4 km/h (2 Bft) S-SW 202 0 min 0,000 mm 0 W/m -0,8 C 0,5 C 14,5 km/h (3 Bft) 100 %
_ Min-Zeit 08:10 08:10 08:20 13:00 00:00 - 15:30 - - - - - 08:10 07:40 15:30 09:40
Minimum _ 0,2 C 0,2 C 0,2 C 90 % 1017,8 hPa - 0,3 km/h (0 Bft) - - - - - -1,1 C -3,9 C 6,4 km/h (2 Bft) 87 %
_ Max-Zeit 15:20 15:30 15:20 00:00 21:10 00:20 06:50 - - 00:00 10:00 10:20 15:20 15:20 07:20 11:40
Maximum _ 1,3 C 1,3 C 1,3 C 91 % 1026,4 hPa 0,2 l/m 11,3 km/h
W (2 Bft)
- - 0 min 0,025 mm 130 W/m -0,0 C 1,3 C 29,0 km/h
W-SW (5 Bft)
100 %
Durchschnitt _ 0,9 C 0,8 C 0,9 C 91 % 1022,7 hPa #0,5 l/m 5,7 km/h (1 Bft) W - #0 min. #0,152 mm 52 W/m -0,5 C 0,3 C 16,5 km/h (3 Bft) 98 %
PRIVATE WETTERSTATION BILLIGHEIM-ALLFELD - www.neckar-odenwald-wetter.de - Holger Sonntag